EN

Hourly Weather Amarnath

Today, 17 January, Sunday

Time Temperature Precipitation Wind Pressure Humidity
00:00 +24°C° 0 mm 0 mps 753 mmHg 52%
01:00 +24°C° 0 mm 0 mps 753 mmHg 53%
02:00 +23°C° 0 mm 0 mps 752 mmHg 54%
03:00 +23°C° 0 mm 0 mps 752 mmHg 55%
04:00 +23°C° 0 mm 0 mps 752 mmHg 56%
05:00 +23°C° 0 mm 0 mps 752 mmHg 55%
06:00 +23°C° 0 mm 0 mps 753 mmHg 54%
07:00 +23°C° 0 mm 0 mps 753 mmHg 53%
08:00 +24°C° 0 mm 0 mps 754 mmHg 53%
09:00 +26°C° 0 mm 0 mps 754 mmHg 47%
10:00 +28°C° 0 mm 0 mps 754 mmHg 42%
11:00 +30°C° 0 mm 0 mps 755 mmHg 37%
12:00 +33°C° 0 mm 1 mps 754 mmHg 35%
13:00 +35°C° 0 mm 2 mps 753 mmHg 34%
14:00 +35°C° 0 mm 3 mps 752 mmHg 33%
15:00 +35°C° 0 mm 3 mps 752 mmHg 35%
16:00 +34°C° 0 mm 3 mps 752 mmHg 36%
17:00 +33°C° 0 mm 3 mps 752 mmHg 38%
18:00 +31°C° 0 mm 2 mps 753 mmHg 42%
19:00 +30°C° 0 mm 2 mps 753 mmHg 45%
20:00 +28°C° 0 mm 1 mps 754 mmHg 49%
21:00 +28°C° 0 mm 1 mps 754 mmHg 50%
22:00 +27°C° 0 mm 1 mps 754 mmHg 52%
23:00 +25°C° 0 mm 0 mps 754 mmHg 53%

Tomorrow, 18 January, Monday

Time Temperature Precipitation Wind Pressure Humidity
00:00 +25°C° 0 mm 0 mps 754 mmHg 54%
01:00 +24°C° 0 mm 0 mps 754 mmHg 55%
02:00 +24°C° 0 mm 0 mps 753 mmHg 56%
03:00 +26°C° 0 mm 1 mps 753 mmHg 56%
04:00 +25°C° 0 mm 1 mps 753 mmHg 56%
05:00 +25°C° 0 mm 1 mps 753 mmHg 56%
06:00 +25°C° 0 mm 1 mps 754 mmHg 55%
07:00 +24°C° 0 mm 0 mps 755 mmHg 53%
08:00 +24°C° 0 mm 0 mps 755 mmHg 52%
09:00 +26°C° 0 mm 0 mps 755 mmHg 47%
10:00 +30°C° 0 mm 1 mps 755 mmHg 41%
11:00 +32°C° 0 mm 1 mps 756 mmHg 36%
12:00 +33°C° 0 mm 1 mps 755 mmHg 35%
13:00 +35°C° 0 mm 2 mps 754 mmHg 35%
14:00 +36°C° 0 mm 2 mps 753 mmHg 34%
15:00 +35°C° 0 mm 3 mps 753 mmHg 36%
16:00 +34°C° 0 mm 3 mps 753 mmHg 38%
17:00 +34°C° 0 mm 3 mps 753 mmHg 40%
18:00 +31°C° 0 mm 2 mps 753 mmHg 44%
19:00 +30°C° 0 mm 2 mps 754 mmHg 47%
20:00 +28°C° 0 mm 1 mps 754 mmHg 51%
21:00 +28°C° 0 mm 1 mps 754 mmHg 51%
22:00 +28°C° 0 mm 1 mps 754 mmHg 52%
23:00 +25°C° 0 mm 0 mps 754 mmHg 52%

Day after tomorrow, 19 January, Tuesday

Time Temperature Precipitation Wind Pressure Humidity
00:00 +25°C° 0 mm 0 mps 754 mmHg 52%
01:00 +25°C° 0 mm 0 mps 753 mmHg 52%
02:00 +24°C° 0 mm 0 mps 753 mmHg 52%
03:00 +24°C° 0 mm 0 mps 753 mmHg 51%
04:00 +24°C° 0 mm 0 mps 753 mmHg 50%
05:00 +26°C° 0 mm 1 mps 753 mmHg 49%
06:00 +26°C° 0 mm 1 mps 754 mmHg 47%
07:00 +26°C° 0 mm 1 mps 754 mmHg 45%
08:00 +27°C° 0 mm 1 mps 755 mmHg 43%
09:00 +29°C° 0 mm 1 mps 755 mmHg 40%
10:00 +31°C° 0 mm 1 mps 755 mmHg 37%
11:00 +32°C° 0 mm 0 mps 755 mmHg 34%
12:00 +34°C° 0 mm 1 mps 755 mmHg 33%
13:00 +35°C° 0 mm 1 mps 754 mmHg 32%
14:00 +37°C° 0 mm 2 mps 753 mmHg 31%
15:00 +36°C° 0 mm 2 mps 753 mmHg 32%
16:00 +36°C° 0 mm 3 mps 753 mmHg 33%
17:00 +35°C° 0 mm 3 mps 753 mmHg 34%
18:00 +32°C° 0 mm 2 mps 753 mmHg 37%
19:00 +31°C° 0 mm 2 mps 754 mmHg 41%
20:00 +29°C° 0 mm 1 mps 754 mmHg 44%
21:00 +29°C° 0 mm 1 mps 754 mmHg 44%
22:00 +26°C° 0 mm 0 mps 754 mmHg 45%
23:00 +26°C° 0 mm 0 mps 755 mmHg 45%

20 January, Wednesday

Time Temperature Precipitation Wind Pressure Humidity
00:00 +26°C° 0 mm 0 mps 754 mmHg 45%
01:00 +25°C° 0 mm 0 mps 754 mmHg 45%
02:00 +25°C° 0 mm 0 mps 754 mmHg 45%
03:00 +24°C° 0 mm 0 mps 754 mmHg 44%
04:00 +26°C° 0 mm 1 mps 754 mmHg 44%
05:00 +26°C° 0 mm 1 mps 754 mmHg 43%
06:00 +26°C° 0 mm 1 mps 754 mmHg 41%
07:00 +27°C° 0 mm 1 mps 755 mmHg 40%
08:00 +27°C° 0 mm 1 mps 756 mmHg 39%
09:00 +29°C° 0 mm 1 mps 756 mmHg 35%
10:00 +32°C° 0 mm 1 mps 756 mmHg 31%
11:00 +34°C° 0 mm 1 mps 756 mmHg 27%
12:00 +35°C° 0 mm 1 mps 755 mmHg 25%
13:00 +36°C° 0 mm 2 mps 755 mmHg 24%
14:00 +37°C° 0 mm 2 mps 754 mmHg 23%
15:00 +37°C° 0 mm 2 mps 754 mmHg 24%
16:00 +36°C° 0 mm 3 mps 754 mmHg 26%
17:00 +36°C° 0 mm 3 mps 754 mmHg 27%
18:00 +34°C° 0 mm 2 mps 754 mmHg 29%
19:00 +31°C° 0 mm 2 mps 755 mmHg 32%
20:00 +29°C° 0 mm 1 mps 755 mmHg 34%
21:00 +29°C° 0 mm 1 mps 755 mmHg 34%
22:00 +28°C° 0 mm 1 mps 755 mmHg 34%
23:00 +26°C° 0 mm 0 mps 755 mmHg 35%

21 January, Thursday

Time Temperature Precipitation Wind Pressure Humidity
00:00 +25°C° 0 mm 0 mps 755 mmHg 35%
01:00 +25°C° 0 mm 0 mps 755 mmHg 35%
02:00 +24°C° 0 mm 0 mps 755 mmHg 35%
03:00 +25°C° 0 mm 1 mps 755 mmHg 35%
04:00 +25°C° 0 mm 1 mps 755 mmHg 35%
05:00 +24°C° 0 mm 1 mps 755 mmHg 34%
06:00 +25°C° 0 mm 1 mps 755 mmHg 33%
07:00 +25°C° 0 mm 1 mps 755 mmHg 32%
08:00 +26°C° 0 mm 1 mps 756 mmHg 31%
09:00 +28°C° 0 mm 1 mps 756 mmHg 27%
10:00 +30°C° 0 mm 1 mps 756 mmHg 24%
11:00 +34°C° 0 mm 2 mps 756 mmHg 20%
12:00 +35°C° 0 mm 2 mps 755 mmHg 18%
13:00 +36°C° 0 mm 2 mps 755 mmHg 16%
14:00 +37°C° 0 mm 3 mps 754 mmHg 15%
15:00 +36°C° 0 mm 3 mps 754 mmHg 17%
16:00 +35°C° 0 mm 3 mps 754 mmHg 19%
17:00 +35°C° 0 mm 3 mps 754 mmHg 21%
18:00 +32°C° 0 mm 2 mps 754 mmHg 25%
19:00 +29°C° 0 mm 2 mps 755 mmHg 29%
20:00 +27°C° 0 mm 1 mps 755 mmHg 33%
21:00 +27°C° 0 mm 1 mps 755 mmHg 33%
22:00 +26°C° 0 mm 1 mps 755 mmHg 33%
23:00 +25°C° 0 mm 1 mps 755 mmHg 34%

22 January, Friday

Time Temperature Precipitation Wind Pressure Humidity
00:00 +25°C° 0 mm 1 mps 755 mmHg 33%
01:00 +24°C° 0 mm 1 mps 755 mmHg 33%
02:00 +24°C° 0 mm 1 mps 755 mmHg 33%
03:00 +23°C° 0 mm 1 mps 754 mmHg 33%
04:00 +23°C° 0 mm 1 mps 754 mmHg 33%
05:00 +22°C° 0 mm 1 mps 754 mmHg 33%
06:00 +23°C° 0 mm 1 mps 754 mmHg 33%
07:00 +24°C° 0 mm 1 mps 755 mmHg 32%
08:00 +24°C° 0 mm 1 mps 755 mmHg 32%
09:00 +27°C° 0 mm 1 mps 755 mmHg 28%
10:00 +30°C° 0 mm 1 mps 755 mmHg 24%
11:00 +32°C° 0 mm 1 mps 755 mmHg 20%
12:00 +34°C° 0 mm 1 mps 754 mmHg 18%
13:00 +36°C° 0 mm 2 mps 754 mmHg 16%
14:00 +37°C° 0 mm 2 mps 753 mmHg 15%
15:00 +36°C° 0 mm 2 mps 753 mmHg 17%
16:00 +35°C° 0 mm 2 mps 752 mmHg 19%
17:00 +35°C° 0 mm 2 mps 752 mmHg 21%
18:00 +32°C° 0 mm 2 mps 753 mmHg 26%
19:00 +29°C° 0 mm 2 mps 753 mmHg 32%
20:00 +27°C° 0 mm 1 mps 754 mmHg 37%
21:00 +26°C° 0 mm 1 mps 754 mmHg 38%
22:00 +26°C° 0 mm 1 mps 754 mmHg 38%
23:00 +23°C° 0 mm 0 mps 754 mmHg 38%
Show more